Regional Weather Roundup
Issued by NWS Green Bay, WI

Home | Current Version | Previous Version | Graphics & Text | Print | Product List | Glossary Off
Versions: 1 2 3 4 5 6 7 8 9 10 11 12 13 14 15 16 17 18 19 20 21 22 23 24 25 26 27 28 29 30 31 32 33 34 35 36 37 38 39 40 41 42 43 44 45 46 47 48 49 50

000
ASUS43 KGRB 221611
RWRGRB

NORTH-CENTRAL AND NORTHEAST WISCONSIN REGIONAL WEATHER ROUNDUP
NATIONAL WEATHER SERVICE GREEN BAY WI
1000 AM CST WED FEB 22 2017

WIZ005-009-010>012-018-019-221700-
NORTH CENTRAL WISCONSIN

CITY           SKY/WX    TMP DP  RH WIND       PRES   REMARKS
IRONWOOD       CLOUDY    42  38  85 CALM      29.62F
MANITOWISH WTR MOSUNNY   44  39  85 NE3       29.59F
ARBOR VITAE    PTSUNNY   45  38  76 N3          N/A
EAGLE RIVER    CLOUDY    44  35  70 CALM      29.60F
LAND O LAKES   CLOUDY    44  36  73 CALM      29.63S
RHINELANDER    CLOUDY    48  38  68 CALM      29.60F
PHILLIPS       CLOUDY    46  39  76 CALM      29.59S
ANTIGO         CLOUDY    46  39  76 NW7       29.62S
TOMAHAWK       MOSUNNY   48  37  67 CALM      29.61S
MERRILL        NOT AVBL
$$

WIZ013-073-221700-
NORTHEAST WISCONSIN

CITY           SKY/WX    TMP DP  RH WIND       PRES   REMARKS
IRON MOUNTAIN  CLOUDY    49  36  61 NW3       29.60F
MARINETTE      PTSUNNY   46  39  76 VRB5      29.66S
OCONTO         CLOUDY    48  42  79 CALM      29.64F
$$

WIZ017-030-035>037-045-221700-
CENTRAL WISCONSIN

CITY           SKY/WX    TMP DP  RH WIND       PRES   REMARKS
MEDFORD        SUNNY     47  38  70 CALM      29.60F
WAUSAU         PTSUNNY   49  37  63 VRB5      29.60R
MOSINEE        MOSUNNY   48  39  71 SE3       29.62S
MARSHFIELD     MOSUNNY   51  37  58 SW8       29.59R
WISC RAPIDS    MOSUNNY   55  39  54 SW9       29.61S
STEVENS POINT  PTSUNNY   51  37  57 SW5       29.61S
WAUPACA        MOSUNNY   58  45  62 S3        29.62S
SHAWANO        CLOUDY    49  42  76 CALM      29.62F
CLINTONVILLE   MOSUNNY   50  41  71 CALM      29.61F
WAUTOMA        SUNNY     58  44  60 SW12      29.61F
$$

WIZ038-039-048-051-221700-
FOX VALLEY

CITY           SKY/WX    TMP DP  RH WIND       PRES   REMARKS
NWS GREEN BAY  PTSUNNY   50  48  93 SW5       29.63F
APPLETON       PTSUNNY   50  46  87 S12       29.61R
OSHKOSH        SUNNY     53  48  83 S14       29.62F
FOND DU LAC    SUNNY     57  48  72 S12G21    29.64F
$$

WIZ022-050-052-221700-
EAST CENTRAL WISCONSIN

CITY           SKY/WX    TMP DP  RH WIND       PRES   REMARKS
EPHRAIM        FAIR      46  42  87 SE5       29.60F
WASHINGTON ISL FAIR      42  38  87 S5        29.62F
STURGEON BAY   CLOUDY    51  44  77 S8          N/A
MANITOWOC      LGT RAIN  43  40  89 E6        29.66F
SHEBOYGAN      SUNNY     60  48  64 SW13      29.65F
$$

LMZ563-521-522-541>543-221700-
LAKESHORE

STATION/POSITION TIME  TEMP    WIND        PRES    VSBY  WAVE
                       AIR SEA DIR/SP/G                  HT/PER
                 (UTC) (F)     (DEG/KT/KT) (MB)    (MI)  (FT/S)
SHEBOYGAN LKSHOR 1600   43     180/ 16/ 18 1004.3F
KEWAUNEE LKSHORE 1542   36     180/ 14/ 15 1003.9F
NORTHPORT PIER   1600   41     150/  8/ 15 1003.0
SISTER BAY LKSHO 1535   50     180/ 10/ 11   N/A
CHAMBERS ISLAND  1540   47     170/  4/ 10 1002.4F
MENOMINEE LKSHOR 1542   39     190/ 13/ 16 1003.2F
$$



USA.gov is the U.S. government's official web portal to all federal, state and local government web resources and services.